Location: Seven Kings
(51.5667°N, 0.1000°E)
Time: 12:09:25
(UTC+00:00)

USA 215 - Pass Details

Date: 29 October 2020
Orbit: 1102 x 1106 km, 123.0° (Epoch: 23 November)

Event Time Altitude Azimuth Distance (km) Brightness Sun altitude
Exits shadow 18:10:08 20° 78° (ENE) 2,295 4.3 -14.9°
Maximum altitude 18:14:39 57° 6° (N) 1,280 3.5 -15.6°
Drops below altitude 10° 18:21:02 10° 290° (WNW) 2,966 6.6 -16.6°
Sets 18:23:33 0° 287° (WNW) 3,925 7.6 -17.0°
